DW1234 Weather Reports


time (UTC)temp
F
wind
direction
speed
knots
gust
knots
rain 1hr
in
rain 24hr
in
rain mn
in
humidity
%
barometer
mb
20220812003758 88 152 4.3 8.7 0.00 0.00 0.00 52 1022.1
20220812003240 88 153 5.2 8.7 0.00 0.00 0.00 51 1022.0
20220812003013 88 193 4.3 0.0 0.00 0.00 0.00 51 1019.7
20220812002738 89 154 4.3 8.7 0.00 0.00 0.00 51 1021.9
20220812002213 89 157 3.5 10.4 0.00 0.00 0.00 50 1021.9
20220812001740 90 155 5.2 10.4 0.00 0.00 0.00 49 1021.9
20220812001515 89 156 5.2 0.0 0.00 0.00 0.00 48 1019.6
20220812001238 90 140 5.2 8.7 0.00 0.00 0.00 48 1021.9
20220812000737 91 155 6.1 8.7 0.00 0.00 0.00 48 1021.9
20220812000218 91 136 5.2 7.8 0.00 0.00 0.00 48 1022.0
20220812000035 91 123 4.3 0.0 0.00 0.00 0.00 48 1019.7
20220811235817 92 148 5.2 7.0 0.00 0.00 0.00 47 1022.0
20220811235735 92 148 5.2 7.0 0.00 0.00 0.00 47 1022.0
20220811235319 92 156 3.5 8.7 0.00 0.00 0.00 47 1022.0
20220811234737 92 207 3.5 8.7 0.00 0.00 0.00 47 1022.0
20220811234611 92 141 5.2 0.0 0.00 0.00 0.00 47 1019.7
20220811234236 93 146 3.5 10.4 0.00 0.00 0.00 46 1022.1
20220811233743 93 157 6.1 10.4 0.00 0.00 0.00 46 1022.1
20220811233308 93 137 7.0 10.4 0.00 0.00 0.00 46 1022.0
20220811233032 93 155 4.3 0.0 0.00 0.00 0.00 47 1019.6
20220811232808 93 221 6.1 10.4 0.00 0.00 0.00 47 1022.0
20220811232725 93 221 6.1 10.4 0.00 0.00 0.00 47 1022.0
20220811232223 93 194 5.2 11.3 0.00 0.00 0.00 46 1021.9
20220811231809 94 151 6.1 11.3 0.00 0.00 0.00 45 1021.9
20220811231550 93 174 5.2 0.0 0.00 0.00 0.00 45 1019.6
20220811231310 94 161 7.0 11.3 0.00 0.00 0.00 45 1022.0
20220811230725 95 169 6.1 11.3 0.00 0.00 0.00 45 1022.0
20220811230252 95 154 7.0 11.3 0.00 0.00 0.00 45 1022.0
20220811230026 94 204 4.3 0.0 0.00 0.00 0.00 45 1019.7
20220811225728 95 195 7.0 9.6 0.00 0.00 0.00 46 1022.0
20220811225312 95 199 4.3 9.6 0.00 0.00 0.00 45 1022.0
20220811224753 95 175 4.3 9.6 0.00 0.00 0.00 45 1022.0
20220811224549 95 132 4.3 0.0 0.00 0.00 0.00 46 1019.6
20220811224233 95 207 4.3 8.7 0.00 0.00 0.00 46 1021.9
20220811223737 95 161 5.2 9.6 0.00 0.00 0.00 45 1022.0
20220811223218 95 196 4.3 12.2 0.00 0.00 0.00 46 1022.0
20220811223102 94 173 6.1 0.0 0.00 0.00 0.00 45 1019.8
20220811222742 95 161 7.8 12.2 0.00 0.00 0.00 46 1022.1
20220811222239 95 138 4.3 10.4 0.00 0.00 0.00 46 1022.1
20220811221802 95 186 7.8 10.4 0.00 0.00 0.00 46 1022.2
20220811221555 94 200 6.1 0.0 0.00 0.00 0.00 46 1019.8
20220811221243 95 173 3.5 13.0 0.00 0.00 0.00 45 1022.2
20220811220806 95 202 7.0 13.0 0.00 0.00 0.00 46 1022.2
20220811220249 95 136 5.2 11.3 0.00 0.00 0.00 46 1022.2
20220811220023 94 209 4.3 0.0 0.00 0.00 0.00 46 1019.9
20220811215805 95 136 4.3 11.3 0.00 0.00 0.00 45 1022.2
20220811215306 95 150 3.5 10.4 0.00 0.00 0.00 45 1022.3
20220811214723 95 146 4.3 10.4 0.00 0.00 0.00 46 1022.4
20220811214516 94 241 5.2 0.0 0.00 0.00 0.00 47 1020.1
20220811214309 95 182 5.2 7.8 0.00 0.00 0.00 46 1022.5
20220811213811 95 185 5.2 9.6 0.00 0.00 0.00 46 1022.5
20220811213314 95 158 5.2 9.6 0.00 0.00 0.00 45 1022.6
20220811213048 94 148 5.2 0.0 0.00 0.00 0.00 45 1020.3
20220811212818 95 189 5.2 9.6 0.00 0.00 0.00 47 1022.6
20220811212736 95 189 5.2 9.6 0.00 0.00 0.00 47 1022.6
20220811212235 94 142 6.1 9.6 0.00 0.00 0.00 46 1022.7
20220811211737 94 152 6.1 9.6 0.00 0.00 0.00 45 1022.7
20220811211505 94 213 5.2 0.0 0.00 0.00 0.00 47 1020.4
20220811211240 94 218 3.5 11.3 0.00 0.00 0.00 47 1022.7
20220811210744 94 142 5.2 11.3 0.00 0.00 0.00 45 1022.9
20220811210222 95 256 5.2 10.4 0.00 0.00 0.00 44 1022.8
20220811210013 94 148 4.3 0.0 0.00 0.00 0.00 44 1020.6
20220811205804 95 251 6.1 10.4 0.00 0.00 0.00 44 1022.8
20220811205721 95 251 6.1 10.4 0.00 0.00 0.00 44 1022.8
20220811205245 95 150 3.5 10.4 0.00 0.00 0.00 45 1022.9
20220811204749 95 218 2.6 10.4 0.00 0.00 0.00 46 1022.9
20220811204538 94 209 5.2 0.0 0.00 0.00 0.00 46 1020.8
20220811204225 95 139 6.1 8.7 0.00 0.00 0.00 45 1022.9
20220811203724 95 186 4.3 12.2 0.00 0.00 0.00 45 1023.0
20220811203249 95 188 7.8 13.0 0.00 0.00 0.00 45 1023.1
20220811203043 94 206 4.3 0.0 0.00 0.00 0.00 44 1020.9
20220811202727 95 192 7.0 13.0 0.00 0.00 0.00 45 1023.2
20220811202307 95 134 3.5 9.6 0.00 0.00 0.00 44 1023.1
20220811201750 94 220 6.1 9.6 0.00 0.00 0.00 45 1023.2
20220811201523 94 214 4.3 0.0 0.00 0.00 0.00 44 1020.9
20220811201227 94 200 5.2 9.6 0.00 0.00 0.00 46 1023.1
20220811200727 94 244 4.3 8.7 0.00 0.00 0.00 45 1023.2
20220811200315 94 211 6.1 8.7 0.00 0.00 0.00 44 1023.5
20220811200023 94 227 4.3 0.0 0.00 0.00 0.00 44 1021.3
20220811195728 94 138 5.2 9.6 0.00 0.00 0.00 45 1023.5
20220811195226 94 168 2.6 9.6 0.00 0.00 0.00 45 1023.5
20220811194725 94 221 5.2 8.7 0.00 0.00 0.00 46 1023.6
20220811194507 93 234 4.3 0.0 0.00 0.00 0.00 45 1021.3
20220811194220 94 155 5.2 8.7 0.00 0.00 0.00 46 1023.7
20220811193744 94 137 4.3 8.7 0.00 0.00 0.00 46 1023.7
20220811193245 94 213 7.0 9.6 0.00 0.00 0.00 46 1023.7
20220811193104 93 208 5.2 0.0 0.00 0.00 0.00 44 1021.5
20220811192810 93 201 6.1 11.3 0.00 0.00 0.00 46 1023.8
20220811192225 93 227 7.0 11.3 0.00 0.00 0.00 47 1023.8
20220811191727 93 185 1.7 7.0 0.00 0.00 0.00 46 1023.8
20220811191635 93 151 4.3 0.0 0.00 0.00 0.00 48 1021.6
20220811191232 93 142 3.5 10.4 0.00 0.00 0.00 47 1023.9
20220811190752 93 229 5.2 10.4 0.00 0.00 0.00 46 1024.0
20220811190229 93 194 4.3 9.6 0.00 0.00 0.00 46 1024.0
20220811190051 92 227 5.2 0.0 0.00 0.00 0.00 48 1021.8
20220811185754 93 190 5.2 9.6 0.00 0.00 0.00 46 1024.1
20220811185321 92 230 3.5 9.6 0.00 0.00 0.00 49 1024.0
20220811184736 92 256 7.0 9.6 0.00 0.00 0.00 48 1024.0
20220811184529 91 241 4.3 0.0 0.00 0.00 0.00 49 1021.8
20220811184236 92 225 4.3 9.6 0.00 0.00 0.00 49 1024.0
20220811183745 91 209 4.3 9.6 0.00 0.00 0.00 49 1024.1
20220811183244 91 219 5.2 9.6 0.00 0.00 0.00 49 1024.1
20220811183051 91 219 4.3 0.0 0.00 0.00 0.00 50 1021.8
20220811182806 91 196 6.1 10.4 0.00 0.00 0.00 49 1024.1
20220811182223 91 165 1.7 10.4 0.00 0.00 0.00 48 1024.3
20220811181721 91 188 4.3 10.4 0.00 0.00 0.00 50 1024.3
20220811181547 90 177 3.5 0.0 0.00 0.00 0.00 49 1022.0
20220811181223 91 171 2.6 8.7 0.00 0.00 0.00 49 1024.3
20220811180724 91 196 0.9 10.4 0.00 0.00 0.00 50 1024.4
20220811180309 91 192 7.0 10.4 0.00 0.00 0.00 52 1024.5
20220811180022 90 171 5.2 0.0 0.00 0.00 0.00 51 1022.2
20220811175750 90 198 5.2 10.4 0.00 0.00 0.00 51 1024.6
20220811175252 90 186 7.0 10.4 0.00 0.00 0.00 51 1024.6
20220811174729 90 209 4.3 8.7 0.00 0.00 0.00 52 1024.7
20220811174524 89 232 3.5 0.0 0.00 0.00 0.00 51 1022.5
20220811174253 89 194 4.3 8.7 0.00 0.00 0.00 52 1024.8
20220811173756 89 162 1.7 7.8 0.00 0.00 0.00 51 1024.7
20220811173238 89 157 3.5 8.7 0.00 0.00 0.00 53 1024.9
20220811173043 88 145 4.3 0.0 0.00 0.00 0.00 52 1022.7
20220811172734 89 199 1.7 11.3 0.00 0.00 0.00 53 1024.9
20220811172238 88 157 5.2 11.3 0.00 0.00 0.00 52 1025.0
20220811171737 88 128 1.7 7.0 0.00 0.00 0.00 55 1024.9
20220811171607 88 146 3.5 0.0 0.00 0.00 0.00 54 1022.7
20220811171505 88 165 4.3 0.0 0.00 0.00 0.00 55 1022.7
20220811171242 88 207 1.7 9.6 0.00 0.00 0.00 55 1025.0
20220811170806 87 221 5.2 9.6 0.00 0.00 0.00 55 1025.1
20220811170222 87 165 4.3 9.6 0.00 0.00 0.00 55 1025.1
20220811170047 87 148 3.5 0.0 0.00 0.00 0.00 56 1022.8
20220811165719 87 117 4.3 9.6 0.00 0.00 0.00 56 1025.1
20220811165221 87 133 1.7 8.7 0.00 0.00 0.00 58 1025.1
20220811164741 86 157 2.6 7.8 0.00 0.00 0.00 58 1025.1
20220811164518 85 176 2.6 0.0 0.00 0.00 0.00 59 1022.9
20220811164218 85 232 2.6 7.8 0.00 0.00 0.00 58 1025.1
20220811163746 85 144 0.9 6.1 0.00 0.00 0.00 60 1025.2
20220811163227 84 213 0.9 7.8 0.00 0.00 0.00 60 1025.3
20220811163053 84 171 2.6 0.0 0.00 0.00 0.00 61 1023.0
20220811162724 84 204 3.5 7.8 0.00 0.00 0.00 62 1025.3
20220811162310 83 186 2.6 7.8 0.00 0.00 0.00 62 1025.4
20220811161756 82 167 3.5 7.0 0.00 0.00 0.00 63 1025.5
20220811161536 82 196 4.3 0.0 0.00 0.00 0.00 64 1023.2
20220811161259 82 225 3.5 9.6 0.00 0.00 0.00 64 1025.6
20220811160737 81 207 7.8 9.6 0.00 0.00 0.00 68 1025.5
20220811160238 80 227 2.6 5.2 0.00 0.00 0.00 68 1025.6
20220811160007 79 234 2.6 0.0 0.00 0.00 0.00 69 1023.4
20220811155802 79 175 2.6 5.2 0.00 0.00 0.00 71 1025.6
20220811155304 78 231 2.6 5.2 0.00 0.00 0.00 72 1025.7
20220811154720 77 230 1.7 6.1 0.00 0.00 0.00 73 1025.7
20220811154540 76 238 3.5 0.0 0.00 0.00 0.00 74 1023.4
20220811154221 76 240 3.5 6.1 0.00 0.00 0.00 76 1025.8
20220811153720 75 227 2.6 7.0 0.00 0.00 0.00 78 1025.8
20220811153322 74 188 3.5 7.0 0.00 0.00 0.00 80 1025.8
20220811153040 73 173 3.5 0.0 0.00 0.00 0.00 81 1023.6
20220811152738 73 194 4.3 6.1 0.00 0.00 0.00 82 1025.8
20220811152242 72 208 3.5 6.1 0.00 0.00 0.00 84 1025.8
20220811151808 72 229 4.3 6.1 0.00 0.00 0.00 85 1025.8
20220811151649 71 229 3.5 0.0 0.00 0.00 0.00 85 1023.6
20220811151301 71 217 5.2 6.1 0.00 0.00 0.00 86 1025.8
20220811150738 71 215 4.3 6.1 0.00 0.00 0.00 87 1025.8
20220811150248 70 200 2.6 6.1 0.00 0.00 0.00 88 1025.8
20220811150007 70 171 3.5 0.0 0.00 0.00 0.00 88 1023.5
20220811145723 70 209 4.3 6.1 0.00 0.00 0.00 88 1025.7
20220811145222 70 258 2.6 4.3 0.00 0.00 0.00 89 1025.7
20220811144724 70 252 2.6 4.3 0.00 0.00 0.00 89 1025.7
20220811144639 69 239 2.6 0.0 0.00 0.00 0.00 89 1023.5
20220811144222 70 196 2.6 6.1 0.00 0.00 0.00 88 1025.8
20220811143723 70 219 2.6 6.1 0.00 0.00 0.00 88 1025.7
20220811143223 70 230 3.5 5.2 0.00 0.00 0.00 88 1025.7
20220811143110 69 183 2.6 0.0 0.00 0.00 0.00 88 1023.4
20220811142808 70 214 1.7 5.2 0.00 0.00 0.00 88 1025.7
20220811142225 70 218 3.5 5.2 0.00 0.00 0.00 88 1025.8
20220811141722 70 232 2.6 4.3 0.00 0.00 0.00 88 1025.8
20220811141551 69 200 2.6 0.0 0.00 0.00 0.00 88 1023.5
20220811141224 70 200 3.5 5.2 0.00 0.00 0.00 88 1025.8
20220811140723 70 223 2.6 5.2 0.00 0.00 0.00 88 1025.8
20220811140248 70 203 2.6 4.3 0.00 0.00 0.00 88 1025.8
20220811140049 70 202 1.7 0.0 0.00 0.00 0.00 88 1023.6
20220811135811 70 187 1.7 3.5 0.00 0.00 0.00 89 1025.8
20220811135226 70 155 1.7 4.3 0.00 0.00 0.00 89 1025.7
20220811134725 69 162 2.6 4.3 0.00 0.00 0.00 89 1025.7
20220811134552 69 168 1.7 0.0 0.00 0.00 0.00 89 1023.5
20220811134250 69 200 2.6 4.3 0.00 0.00 0.00 89 1025.8
20220811133723 69 160 1.7 3.5 0.00 0.00 0.00 89 1025.7
20220811133312 69 160 0.9 3.5 0.00 0.00 0.00 90 1025.7
20220811133045 68 160 0.9 0.0 0.00 0.00 0.00 90 1023.5
20220811132756 69 159 0.9 3.5 0.00 0.00 0.00 90 1025.7
20220811132322 68 159 0.0 3.5 0.00 0.00 0.00 90 1025.7
20220811131735 68 159 0.9 4.3 0.00 0.00 0.00 90 1025.7
20220811131522 68 159 1.7 0.0 0.00 0.00 0.00 90 1023.4
20220811131238 68 159 0.9 4.3 0.00 0.00 0.00 90 1025.7
20220811130800 68 165 2.6 4.3 0.00 0.00 0.00 90 1025.7
20220811130717 68 165 2.6 4.3 0.00 0.00 0.00 90 1025.7
20220811130220 67 166 0.9 3.5 0.00 0.00 0.00 90 1025.7
20220811130009 67 166 0.9 0.0 0.00 0.00 0.00 90 1023.4
20220811125745 67 165 0.9 3.5 0.00 0.00 0.00 90 1025.7
20220811125222 67 165 1.7 3.5 0.00 0.00 0.00 90 1025.7
20220811124808 67 165 1.7 3.5 0.00 0.00 0.00 90 1025.6
20220811124550 66 165 0.9 0.0 0.00 0.00 0.00 90 1023.3
20220811124252 67 165 0.9 3.5 0.00 0.00 0.00 90 1025.5
20220811123817 66 165 0.0 4.3 0.00 0.00 0.00 90 1025.5
20220811123316 66 165 0.9 4.3 0.00 0.00 0.00 90 1025.4
20220811123045 66 165 0.9 0.0 0.00 0.00 0.00 90 1023.1
20220811122734 66 165 1.7 3.5 0.00 0.00 0.00 90 1025.4
20220811122231 66 165 0.9 3.5 0.00 0.00 0.00 89 1025.3
20220811121734 66 165 0.9 3.5 0.00 0.00 0.00 89 1025.2
20220811121533 65 165 0.9 0.0 0.00 0.00 0.00 89 1023.0
20220811121316 66 165 1.7 3.5 0.00 0.00 0.00 89 1025.3
20220811120801 66 165 0.0 3.5 0.00 0.00 0.00 89 1025.3
20220811120303 66 165 1.7 3.5 0.00 0.00 0.00 89 1025.2
20220811120013 65 165 0.9 0.0 0.00 0.00 0.00 89 1022.9
20220811115745 66 165 0.9 1.7 0.00 0.00 0.00 89 1025.2
20220811115241 66 165 0.9 1.7 0.00 0.00 0.00 89 1025.2
20220811114741 66 165 0.0 1.7 0.00 0.00 0.00 89 1025.1
20220811114526 66 165 0.9 0.0 0.00 0.00 0.00 89 1022.9
20220811114218 66 165 0.0 1.7 0.00 0.00 0.00 89 1025.2
20220811113803 66 165 0.9 1.7 0.00 0.00 0.00 88 1025.1
20220811113241 66 165 0.0 3.5 0.00 0.00 0.00 88 1025.1
20220811113053 66 165 0.9 0.0 0.00 0.00 0.00 88 1022.8
20220811112717 66 165 1.7 3.5 0.00 0.00 0.00 88 1025.1
20220811112242 66 165 0.9 1.7 0.00 0.00 0.00 88 1025.1
20220811111720 67 165 0.0 1.7 0.00 0.00 0.00 88 1025.1
20220811111557 66 165 0.0 0.0 0.00 0.00 0.00 88 1022.7
20220811111242 67 165 0.0 1.7 0.00 0.00 0.00 88 1025.0
20220811110739 67 165 0.0 0.0 0.00 0.00 0.00 87 1024.9
20220811110242 67 165 0.0 0.0 0.00 0.00 0.00 87 1024.9
20220811110013 66 165 0.0 0.0 0.00 0.00 0.00 87 1022.7
20220811105743 67 165 0.0 0.0 0.00 0.00 0.00 87 1024.9
20220811105218 67 165 0.0 0.0 0.00 0.00 0.00 87 1024.9
20220811104743 67 165 0.0 0.9 0.00 0.00 0.00 87 1024.9
20220811104533 67 165 0.0 0.0 0.00 0.00 0.00 87 1022.6
20220811104241 67 165 0.0 0.9 0.00 0.00 0.00 87 1024.8
20220811103741 68 165 0.0 0.9 0.00 0.00 0.00 86 1024.8
20220811103219 68 165 0.0 0.9 0.00 0.00 0.00 86 1024.8
20220811103056 67 165 0.0 0.0 0.00 0.00 0.00 86 1022.6
20220811102737 68 165 0.0 0.9 0.00 0.00 0.00 86 1024.8
20220811102331 68 165 0.0 0.9 0.00 0.00 0.00 85 1024.8
20220811101836 68 165 0.0 1.7 0.00 0.00 0.00 85 1024.9
20220811101509 68 165 0.0 0.0 0.00 0.00 0.00 85 1022.6
20220811101253 69 165 0.9 1.7 0.00 0.00 0.00 85 1024.9
20220811100730 69 165 0.0 1.7 0.00 0.00 0.00 85 1024.8
20220811100311 69 165 0.9 1.7 0.00 0.00 0.00 85 1024.8
20220811100122 68 165 0.9 0.0 0.00 0.00 0.00 85 1022.6
20220811095755 69 165 0.0 3.5 0.00 0.00 0.00 85 1024.8
20220811095319 69 165 1.7 3.5 0.00 0.00 0.00 85 1024.7
20220811094736 69 165 1.7 3.5 0.00 0.00 0.00 85 1024.7
20220811094536 69 165 0.9 0.0 0.00 0.00 0.00 85 1022.4
20220811094320 69 165 0.9 3.5 0.00 0.00 0.00 85 1024.7
20220811094237 69 165 0.9 3.5 0.00 0.00 0.00 85 1024.7
20220811093735 69 165 0.9 3.5 0.00 0.00 0.00 85 1024.7
20220811093233 69 165 0.9 3.5 0.00 0.00 0.00 85 1024.8
20220811093031 69 165 0.9 0.0 0.00 0.00 0.00 85 1022.5
20220811092813 69 165 0.9 3.5 0.00 0.00 0.00 84 1024.7
20220811092258 69 165 1.7 3.5 0.00 0.00 0.00 84 1024.8
20220811091717 70 165 1.7 3.5 0.00 0.00 0.00 84 1024.8
20220811091551 69 165 0.9 0.0 0.00 0.00 0.00 84 1022.5
20220811091222 70 166 0.9 3.5 0.00 0.00 0.00 84 1024.8
20220811090722 70 165 0.9 5.2 0.00 0.00 0.00 84 1024.8
20220811090308 70 167 0.9 5.2 0.00 0.00 0.00 84 1024.7
20220811090035 69 167 1.7 0.0 0.00 0.00 0.00 84 1022.5
20220811085745 70 186 0.9 2.6 0.00 0.00 0.00 83 1024.8
20220811085244 70 210 0.9 2.6 0.00 0.00 0.00 83 1024.8
20220811084722 70 210 0.9 2.6 0.00 0.00 0.00 83 1024.8
20220811084540 69 210 0.9 0.0 0.00 0.00 0.00 83 1022.5
20220811084244 70 211 0.9 2.6 0.00 0.00 0.00 83 1024.9
20220811083750 70 211 0.9 2.6 0.00 0.00 0.00 83 1024.9
20220811083253 70 211 1.7 2.6 0.00 0.00 0.00 82 1024.9
20220811083036 69 211 0.9 0.0 0.00 0.00 0.00 82 1022.6
20220811082758 70 212 0.9 1.7 0.00 0.00 0.00 82 1024.8
20220811082316 70 212 0.9 2.6 0.00 0.00 0.00 82 1024.9
20220811082234 70 212 0.9 2.6 0.00 0.00 0.00 82 1024.9
20220811081757 70 212 0.9 2.6 0.00 0.00 0.00 82 1024.9
20220811081528 69 212 0.9 0.0 0.00 0.00 0.00 82 1022.6
20220811081234 70 213 0.9 1.7 0.00 0.00 0.00 82 1024.9
20220811080733 70 213 0.9 1.7 0.00 0.00 0.00 82 1024.9
20220811080235 70 213 0.9 1.7 0.00 0.00 0.00 82 1024.9
20220811080027 69 213 0.9 0.0 0.00 0.00 0.00 82 1022.6
20220811075817 70 213 0.9 3.5 0.00 0.00 0.00 82 1024.9
20220811075233 70 213 1.7 3.5 0.00 0.00 0.00 82 1024.9
20220811074732 70 221 0.9 2.6 0.00 0.00 0.00 82 1024.8
20220811074511 70 221 0.9 0.0 0.00 0.00 0.00 82 1022.6
20220811074252 70 221 1.7 2.6 0.00 0.00 0.00 82 1024.8
20220811073731 70 221 0.9 1.7 0.00 0.00 0.00 82 1024.9
20220811073314 71 221 0.9 1.7 0.00 0.00 0.00 82 1024.8
20220811073049 70 221 0.0 0.0 0.00 0.00 0.00 82 1022.5
20220811072815 71 221 0.0 0.9 0.00 0.00 0.00 81 1024.7
20220811072231 71 221 0.0 0.9 0.00 0.00 0.00 81 1024.8
20220811071758 71 221 0.0 1.7 0.00 0.00 0.00 81 1024.8
20220811071509 70 221 0.9 0.0 0.00 0.00 0.00 81 1022.5
20220811071257 71 221 0.9 1.7 0.00 0.00 0.00 81 1024.8
20220811070801 71 221 0.9 1.7 0.00 0.00 0.00 81 1024.8
20220811070308 71 221 0.0 2.6 0.00 0.00 0.00 81 1024.9
20220811070225 71 221 0.0 2.6 0.00 0.00 0.00 81 1024.9
20220811070039 71 221 0.9 0.0 0.00 0.00 0.00 81 1022.6
20220811065811 71 221 1.7 2.6 0.00 0.00 0.00 81 1024.9
20220811065253 72 221 0.9 1.7 0.00 0.00 0.00 80 1024.8
20220811064816 72 221 0.9 1.7 0.00 0.00 0.00 79 1024.9
20220811064537 72 221 1.7 0.0 0.00 0.00 0.00 79 1022.6
20220811064320 72 221 0.9 2.6 0.00 0.00 0.00 79 1024.8
20220811063737 72 221 1.7 2.6 0.00 0.00 0.00 79 1024.9
20220811063258 72 221 1.7 2.6 0.00 0.00 0.00 79 1025.0
20220811063016 72 221 1.7 0.0 0.00 0.00 0.00 78 1022.7
20220811062738 73 221 1.7 3.5 0.00 0.00 0.00 78 1025.0
20220811062236 73 218 0.9 3.5 0.00 0.00 0.00 78 1025.0
20220811061737 73 218 1.7 3.5 0.00 0.00 0.00 78 1024.9
20220811061542 72 217 0.9 0.0 0.00 0.00 0.00 78 1022.7
20220811061215 73 189 1.7 2.6 0.00 0.00 0.00 78 1024.9
20220811060817 73 189 0.9 0.9 0.00 0.00 0.00 77 1024.9
20220811060735 73 189 0.9 0.9 0.00 0.00 0.00 77 1024.9
20220811060236 74 189 0.0 1.7 0.00 0.00 0.00 76 1024.9
20220811060040 73 189 0.0 0.0 0.00 0.00 0.00 75 1022.6
20220811055735 74 189 0.0 1.7 0.00 0.00 0.00 75 1024.7
20220811055301 74 189 0.0 0.9 0.00 0.00 0.00 75 1024.8
20220811054741 74 189 0.0 0.9 0.00 0.00 0.00 75 1024.8
20220811054543 74 189 0.9 0.0 0.00 0.00 0.00 75 1022.6
20220811054304 74 189 0.0 1.7 0.00 0.00 0.00 75 1024.9
20220811053722 74 189 0.9 1.7 0.00 0.00 0.00 75 1024.9
20220811053302 74 189 0.9 2.6 0.00 0.00 0.00 75 1024.8
20220811053019 74 189 0.9 0.0 0.00 0.00 0.00 75 1022.5
20220811052739 74 189 1.7 2.6 0.00 0.00 0.00 75 1024.9
20220811052217 74 189 0.0 1.7 0.00 0.00 0.00 75 1024.9
20220811051721 74 189 0.9 1.7 0.00 0.00 0.00 75 1024.8
20220811051521 74 189 0.0 0.0 0.00 0.00 0.00 75 1022.6
20220811051324 75 189 0.9 1.7 0.00 0.00 0.00 75 1024.9
20220811050738 75 189 0.0 0.9 0.00 0.00 0.00 74 1024.9
20220811050243 75 189 0.0 1.7 0.00 0.00 0.00 73 1024.8
20220811050101 75 189 0.0 0.0 0.00 0.00 0.00 73 1022.6
20220811045815 76 189 0.9 1.7 0.00 0.00 0.00 73 1024.8
20220811045257 76 189 0.0 1.7 0.00 0.00 0.00 72 1024.9
20220811044738 76 189 0.9 2.6 0.00 0.00 0.00 72 1024.7
20220811044511 76 189 0.9 0.0 0.00 0.00 0.00 72 1022.6
20220811044217 77 189 0.9 2.6 0.00 0.00 0.00 72 1024.7
20220811043721 77 189 0.0 0.9 0.00 0.00 0.00 71 1024.7
20220811043219 77 189 0.0 0.9 0.00 0.00 0.00 70 1024.7
20220811043034 77 189 0.0 0.0 0.00 0.00 0.00 70 1022.5
20220811042807 78 189 0.0 0.9 0.00 0.00 0.00 70 1024.8
20220811042725 78 189 0.0 0.9 0.00 0.00 0.00 70 1024.8
20220811042219 78 189 0.0 1.7 0.00 0.00 0.00 69 1024.7
20220811041808 78 189 0.0 2.6 0.00 0.00 0.00 69 1024.7
20220811041726 78 189 0.0 2.6 0.00 0.00 0.00 69 1024.7
20220811041604 78 189 0.9 0.0 0.00 0.00 0.00 68 1022.4
20220811041225 79 189 0.9 2.6 0.00 0.00 0.00 68 1024.7
20220811040754 79 189 0.9 2.6 0.00 0.00 0.00 67 1024.7
20220811040257 79 189 0.9 3.5 0.00 0.00 0.00 67 1024.7
20220811040058 79 189 1.7 0.0 0.00 0.00 0.00 67 1022.5
20220811035822 79 189 1.7 3.5 0.00 0.00 0.00 67 1024.7
20220811035242 80 196 0.9 1.7 0.00 0.00 0.00 67 1024.8
20220811034736 80 197 0.9 3.5 0.00 0.00 0.00 66 1024.8
20220811034559 79 197 1.7 0.0 0.00 0.00 0.00 66 1022.5
20220811034303 80 197 1.7 4.3 0.00 0.00 0.00 66 1024.8
20220811033747 80 212 3.5 4.3 0.00 0.00 0.00 66 1024.8
20220811033252 81 169 1.7 3.5 0.00 0.00 0.00 66 1024.7
20220811033109 80 169 0.9 0.0 0.00 0.00 0.00 66 1022.4
20220811032814 81 169 0.0 4.3 0.00 0.00 0.00 66 1024.7
20220811032124 81 141 1.7 5.2 0.00 0.00 0.00 65 1024.6
20220811031313 81 134 2.6 5.2 0.00 0.00 0.00 65 1024.6
20220811030729 81 157 0.9 5.2 0.00 0.00 0.00 64 1024.5
20220811030222 82 141 2.6 6.1 0.00 0.00 0.00 64 1024.4
20220811030036 81 140 2.6 0.0 0.00 0.00 0.00 64 1022.2
20220811025721 82 146 3.5 6.1 0.00 0.00 0.00 64 1024.4
20220811025218 82 152 1.7 5.2 0.00 0.00 0.00 63 1024.4
20220811024747 82 151 2.6 5.2 0.00 0.00 0.00 63 1024.4
20220811024550 82 149 2.6 0.0 0.00 0.00 0.00 63 1022.1
20220811024225 82 175 3.5 5.2 0.00 0.00 0.00 63 1024.3
20220811023813 82 152 3.5 5.2 0.00 0.00 0.00 63 1024.3
20220811023238 83 161 1.7 5.2 0.00 0.00 0.00 62 1024.2
20220811023035 82 153 2.6 0.0 0.00 0.00 0.00 62 1021.9
20220811022737 83 144 1.7 4.3 0.00 0.00 0.00 61 1024.2
20220811022234 83 148 1.7 3.5 0.00 0.00 0.00 61 1024.2
20220811021721 83 147 0.9 4.3 0.00 0.00 0.00 60 1024.1
20220811021542 83 148 1.7 0.0 0.00 0.00 0.00 60 1021.8
20220811021219 83 135 1.7 4.3 0.00 0.00 0.00 60 1024.0
20220811020717 84 149 1.7 4.3 0.00 0.00 0.00 59 1024.0
20220811020218 84 120 0.9 6.1 0.00 0.00 0.00 59 1023.9
20220811020041 83 120 1.7 0.0 0.00 0.00 0.00 59 1021.6
20220811015742 84 153 2.6 6.1 0.00 0.00 0.00 59 1023.8
20220811015307 84 148 0.9 6.1 0.00 0.00 0.00 58 1023.8
20220811014745 84 136 0.9 5.2 0.00 0.00 0.00 57 1023.7
20220811014609 84 136 1.7 0.0 0.00 0.00 0.00 57 1021.4
20220811014501 84 136 1.7 0.0 0.00 0.00 0.00 57 1021.4
20220811014249 85 155 0.9 5.2 0.00 0.00 0.00 57 1023.6
20220811013736 85 148 1.7 5.2 0.00 0.00 0.00 56 1023.6
20220811013302 85 144 0.9 5.2 0.00 0.00 0.00 56 1023.6
20220811013220 85 144 0.9 5.2 0.00 0.00 0.00 56 1023.6
20220811013024 85 144 2.6 0.0 0.00 0.00 0.00 56 1021.3
20220811012745 85 113 3.5 6.1 0.00 0.00 0.00 55 1023.5
20220811012309 86 130 2.6 6.1 0.00 0.00 0.00 55 1023.5
20220811011748 86 143 2.6 7.0 0.00 0.00 0.00 54 1023.5
20220811011558 86 121 2.6 0.0 0.00 0.00 0.00 54 1021.2
20220811011225 86 144 4.3 7.0 0.00 0.00 0.00 54 1023.5
20220811010811 87 145 2.6 7.0 0.00 0.00 0.00 53 1023.5
20220811010729 87 145 2.6 7.0 0.00 0.00 0.00 53 1023.5
20220811010226 87 143 1.7 5.2 0.00 0.00 0.00 53 1023.4
20220811010052 86 143 1.7 0.0 0.00 0.00 0.00 53 1021.2
20220811005726 87 125 1.7 5.2 0.00 0.00 0.00 53 1023.4
20220811005313 88 155 1.7 6.1 0.00 0.00 0.00 52 1023.5
20220811004729 88 139 0.9 6.1 0.00 0.00 0.00 52 1023.5
20220811004544 88 139 3.5 0.0 0.00 0.00 0.00 52 1021.2
20220811004251 88 184 1.7 7.8 0.00 0.00 0.00 52 1023.4